Regional Weather Roundup
Issued by NWS

Home | Current Version | Previous Version | Graphics & Text | Print | Product List | Glossary On
Versions: 1 2 3 4 5 6 7 8 9 10 11 12 13 14 15 16 17 18 19 20 21 22 23 24 25 26 27 28 29 30 31 32 33 34 35 36 37 38 39 40 41 42 43 44 45 46 47 48 49 50
000
ASUS43 KMKX 281010
RWRWI

WISCONSIN REGIONAL WEATHER ROUNDUP
NATIONAL WEATHER SERVICE MILWAUKEE/SULLIVAN WI
400 AM CST SAT FEB 28 2015

NOTE: "FAIR" INDICATES FEW OR NO CLOUDS BELOW 12,000 FEET WITH NO
SIGNIFICANT WEATHER AND/OR OBSTRUCTIONS TO VISIBILITY.

WIZ001-002-006>008-014>016-023>028-281100-
NORTHWEST WISCONSIN

CITY           SKY/WX    TMP DP  RH WIND       PRES   REMARKS
SUPERIOR ARPT  CLEAR      1  -5  75 W5        30.49S WCI  -8
ASHLAND        CLEAR      0  -5  79 S7        30.49S WCI -13
HAYWARD        CLEAR    -10 -17  71 S3        30.47S
SIREN          CLEAR     -6 -11  79 CALM      30.49S
CUMBERLAND     PTCLDY    -4  -8  84 SE3       30.48S
RICE LAKE      PTCLDY    -7 -11  82 CALM      30.52S
CHETEK         PTCLDY   -10 -15  80 MISG      30.52R
LADYSMITH      PTCLDY    -6 -10  82 SE3       30.51F
EAU CLAIRE     PTCLDY    -5 -10  79 S5        30.54F WCI -16
MENOMONIE      PTCLDY    -3  -7  82 SE3       30.55R
NEW RICHMOND   CLEAR     -3  -7  82 S5        30.51S WCI -14
OSCEOLA        CLEAR     -2  -6  84 S6        30.54S WCI -14
$$

WIZ003>005-009-010-017-018-281100-
NORTH CENTRAL WISCONSIN

CITY           SKY/WX    TMP DP  RH WIND       PRES   REMARKS
MANITOWISH WTR PTCLDY   -13 -17  83 CALM      30.43R
ARBOR VITAE    PTCLDY    -9 -15  74 CALM      30.44S
WOODRUFF       PTCLDY    -9 -15  74 CALM      30.44S
RHINELANDER    PTCLDY    -8 -12  83 SW5       30.45S WCI -19
EAGLE RIVER    PTCLDY   -12 -18  76 CALM      30.44R
LAND O LAKES   PTCLDY   -18 -25  73 CALM      30.43R
PHILLIPS       CLEAR    -10 -14  83 CALM      30.46S
TOMAHAWK       MOCLDY   -16 -22  76 CALM      30.48S
MEDFORD        PTCLDY    -5  -8  86 SW3       30.47F
MERRILL        MOCLDY   -18 -24  75 CALM      30.50S
$$

WIZ029-030-035-036-043>047-281100-
CENTRAL WISCONSIN

CITY           SKY/WX    TMP DP  RH WIND       PRES   REMARKS
WAUSAU         PTCLDY    -3  -8  79 CALM      30.51S
MOSINEE        PTCLDY    -4  -8  84 SW3       30.53S
MARSHFIELD     PTCLDY    -5 -10  79 SW3       30.52S
STEVENS POINT  PTCLDY    -3  -8  77 CALM      30.55S
WAUPACA        FAIR      -2  -9  72 CALM      30.58F
WAUTOMA        CLEAR    -10 -16  75 CALM      30.60R
WISC RAPIDS    PTCLDY    -7 -13  75 SW6       30.58R WCI -20
CAMP DOUGLAS   CLEAR     -7 -10  87 CALM      30.58S
$$

WIZ011>013-019>022-031-037>040-048>050-281100-
NORTHEAST WISCONSIN

CITY           SKY/WX    TMP DP  RH WIND       PRES   REMARKS
ANTIGO         PTCLDY    -6 -10  85 W5        30.48S WCI -17
SHAWANO        CLEAR      3  -6  66 CALM      30.57S
OCONTO         CLEAR      1  -7  70 W5        30.58R WCI  -9
STURGEON BAY   CLEAR      5  -6  61 W7        30.58S WCI  -7
GREEN BAY      CLEAR      2  -5  72 SW5       30.59S WCI  -8
MANITOWOC      CLEAR      3  -4  72 W10       30.61R WCI -12
APPLETON       CLEAR      1  -8  66 W7        30.58R WCI -11
CLINTONVILLE   CLEAR      0  -8  71 CALM      30.57S
OSHKOSH        CLEAR      2  -7  66 CALM      30.59R
$$

WIZ032>034-041-042-053>061-281100-
SOUTHWEST WISCONSIN

CITY           SKY/WX    TMP DP  RH WIND       PRES   REMARKS
LA CROSSE      PTCLDY    -7 -12  79 S5        30.61S WCI -18
SPARTA         CLEAR    -14 -19  78 CALM      30.60S
VIROQUA        PTCLDY    -5  -9  84 S6        30.54R WCI -18
BOSCOBEL       FAIR     -14 -21  71 CALM      30.64S
PRAIRIE DU CHI MOCLDY   -14 -21  72 CALM      30.63F
PLATTEVILLE    MOCLDY    -7 -11  83 SE3       30.59S
$$

WIZ056-057-062-063-064-067-068-281100-
SOUTH CENTRAL WISCONSIN

CITY           SKY/WX    TMP DP  RH WIND       PRES   REMARKS
REEDSBURG      CLEAR     -5 -10  81 CALM      30.60R
BARABOO/DELLS  CLEAR     -2  -8  77 CALM      30.59R
LONE ROCK      CLEAR    -14 -18  82 E3        30.63S
MINERAL POINT  PTCLDY     1  -6  71 CALM      30.57S
MADISON        CLEAR     -7 -12  79 CALM      30.61S
MIDDLETON      CLEAR     -7 -13  74 CALM      30.60S
WATERTOWN      CLEAR     -3  -9  77 CALM      30.61S
MONROE         PTCLDY    -4  -6  92 SW6       30.58S WCI -16
JANESVILLE     FAIR      -8 -15  71 CALM      30.63S
$$

WIZ051-052-058>065-066-070>072-281100-
SOUTHEAST WISCONSIN

CITY           SKY/WX    TMP DP  RH WIND       PRES   REMARKS
MILWAUKEE      PTCLDY    -1 -10  65 SW3       30.63F
WAUKESHA       PTCLDY    -2  -8  78 SW7       30.62S WCI -16
MILWAUKEE/TIMM CLEAR      1  -8  66 W6        30.63S WCI -10
RACINE         PTCLDY    -2  -9  72 W5        30.66S WCI -12
BURLINGTON     PTCLDY   -16 -21  79 CALM      30.63S
KENOSHA        FAIR     -10 -14  82 SW6       30.64S WCI -23
FOND DU LAC    CLEAR      0  -7  72 SW7       30.60S WCI -13
SHEBOYGAN      CLEAR     -3  -9  75 SW8       30.60S WCI -18
WEST BEND      CLEAR      1  -8  66 CALM      30.60R
JUNEAU         CLEAR     -4 -10  75 CALM      30.61R
$$

LSZ147-162-281100-
LAKE SUPERIOR

STATION/POSITION TIME  TEMP    WIND        PRES    WAVE
                       AIR SEA DIR/SP/G            HT/PER
                 (UTC) (F)     (DEG/KT/KT) (MB)    (FT/S)
DEVILS ISLAND    1000    8     230/ 16/ 19 1033.5R
PORT WING        0900    5     190/  9/ 12 1032.2
SAXON HARBOR     0900    6     190/  6/  9 1032.5
$$

LMZ867-665-643>646-281100-
LAKE MICHIGAN

STATION/POSITION TIME  TEMP    WIND        PRES    WAVE
                       AIR SEA DIR/SP/G            HT/PER
                 (UTC) (F)     (DEG/KT/KT) (MB)    (FT/S)
NORTHPORT PIER   0900    8     250/  3/  9 1034.2
SISTER BAY       0928    6     250/  8/ 10   N/A
KEWAUNEE LAKESHO 0900    6     290/  5/ 10 1034.5F
SHEBOYGAN LAKESH 1000    6     250/  9/ 11 1038.6R
PORT WASHINGTON  0900    5     270/  4/  6 1037.6S
MILWAUKEE LAKESH 0900    6     260/ 11/ 14   N/A
KENOSHA   LAKESH 1000    0     240/  4/  7 1037.9R
$$

TC  - TEMPERATURE IN CELSIUS
VSB - VISIBILITY IN STATUTE MILES
WCI - WIND CHILL INDEX
HX  - HEAT INDEX




USA.gov is the U.S. government's official web portal to all federal, state and local government web resources and services.